Home > Weather > Bengaluru > Past weeks

Flag for India Weather for the Past 2 Weeks in Bengaluru, Karnataka, India

Now
77 °F

Fog.


Feels Like: 78 °F
Forecast: 67 / 91 °F
Wind: 1 mph from North

Location: Bengaluru Internatinal Airport

Current Time: Feb 8, 2016 at 9:41:38 AM

Latest Report: Feb 8, 2016 at 9:00 AM


Visibility: 2 mi

Pressure: 30.09 "Hg (27.22 "Hg at 876m altitude)

Humidity: 89%

Dew point: 73 °F

Location of BengaluruLocation

Historic Weather in Bengaluru — Graph

°F

Bengaluru Temperature Yesterday

Maximum temperature yesterday: 91 °F (at 4:30 PM)
Minimum temperature yesterday: 70 °F (at 3:30 AM)
Average temperature yesterday: 80 °F

High & Low Weather Summary for the Past Weeks

 TemperatureHumidityPressure
High95 °F (Feb 1, 2:30 PM)100% (Jan 24, 8:30 AM)30.18 "Hg (Jan 24, 8:30 AM)
Low59 °F (Feb 2, 5:30 AM)11% (Feb 2, 2:30 PM)29.95 "Hg (Feb 6, 2:30 PM)
Average78 °F65%30.07 "Hg
* Reported Jan 24 8:30 AM — Feb 8 8:30 AM, Bengaluru, Weather by CustomWeather, © 2016

Note: Actual official high and low records may vary slightly from our data, if they occured in-between our weather recording intervals... More about our weather records

Advertising

Bengaluru Weather History for the Previous 24 Hours

 ConditionsComfort  
Time TempWeatherWind HumidityBarometerVisibility
8:30 AM
Mon, Feb 8
75 °FFog.No wind94%30.09 "Hg2 mi
8:00 AM73 °FFog.1 mph100%30.09 "Hg1 mi
7:30 AM73 °FFog.1 mph100%30.07 "Hg1 mi
7:00 AM72 °FFog.No wind100%30.07 "Hg1 mi
6:30 AM72 °FFog.1 mph100%30.07 "Hg1 mi
6:00 AM72 °FFog.1 mph100%30.04 "Hg1 mi
5:30 AM72 °FMild.No wind100%30.04 "Hg1 mi
4:30 AM72 °FFog.5 mph100%30.04 "Hg0 mi
4:00 AM72 °FFog.No wind100%30.01 "Hg0 mi
3:30 AM72 °FFog.No wind100%30.04 "Hg1 mi
3:00 AM72 °FFog.No wind100%30.04 "Hg2 mi
2:30 AM73 °FFog.No wind100%30.04 "Hg2 mi
2:00 AM73 °FFog.No wind100%30.04 "Hg2 mi
1:00 AM75 °FFog.No wind100%30.07 "Hg3 mi
12:30 AM75 °FPassing clouds.No wind100%30.09 "Hg4 mi
12:00 AM75 °FPassing clouds.No wind94%30.09 "Hg4 mi
11:30 PM
Sun, Feb 7
77 °FPassing clouds.No wind89%30.09 "Hg4 mi
11:00 PM77 °FPassing clouds.No wind83%30.09 "Hg4 mi
10:30 PM77 °FPassing clouds.No wind79%30.09 "Hg4 mi
10:00 PM79 °FPassing clouds.No wind70%30.09 "Hg4 mi
9:00 PM81 °FPassing clouds.No wind66%30.07 "Hg5 mi
8:30 PM82 °FPassing clouds.No windN/AN/A5 mi
8:00 PM82 °FPassing clouds.No wind58%30.04 "Hg5 mi
7:30 PM82 °FPassing clouds.No wind62%30.04 "Hg5 mi
7:00 PM84 °FPassing clouds.No wind55%30.04 "Hg5 mi
6:30 PM86 °FScattered clouds.No wind52%30.01 "HgN/A
6:00 PM88 °FScattered clouds.No wind46%30.01 "HgN/A
5:30 PM90 °FScattered clouds.No wind38%30.01 "HgN/A
5:00 PM90 °FScattered clouds.5 mph41%30.01 "HgN/A
4:30 PM91 °FScattered clouds.3 mph36%30.01 "HgN/A
4:00 PM90 °FScattered clouds.2 mph41%30.01 "HgN/A
3:30 PM90 °FScattered clouds.No windN/AN/AN/A
3:00 PM90 °FScattered clouds.2 mph41%30.01 "HgN/A
2:30 PM90 °FScattered clouds.No wind41%30.01 "Hg5 mi
2:00 PM90 °FScattered clouds.1 mph43%30.04 "Hg5 mi
1:30 PM88 °FScattered clouds.No wind49%30.04 "Hg4 mi
1:00 PM86 °FScattered clouds.No wind52%30.07 "Hg4 mi
12:30 PM88 °FScattered clouds.1 mph49%30.09 "Hg4 mi
12:00 PM86 °FScattered clouds.1 mph52%30.09 "Hg4 mi
11:30 AM84 °FScattered clouds.1 mph58%30.09 "Hg4 mi
11:00 AM82 °FPassing clouds.1 mph62%30.12 "Hg4 mi
10:30 AM81 °FPassing clouds.3 mph70%30.12 "Hg4 mi
10:00 AM79 °FPassing clouds.2 mph79%30.15 "Hg4 mi
9:30 AM77 °FPassing clouds.1 mph89%30.12 "Hg4 mi
9:00 AM75 °FScattered clouds.1 mph94%30.12 "Hg4 mi
Weather by CustomWeather, © 2016

See weather overviewHow to use our weather pages